Regional Weather Roundup
Issued by NWS

Home | Current Version | Previous Version | Text Only | Print | Product List | Glossary On
Versions: 1 2 3 4 5 6 7 8 9 10 11 12 13 14 15 16 17 18 19 20 21 22 23 24 25 26 27 28 29 30 31 32 33 34 35 36 37 38 39 40 41 42 43 44 45 46 47 48 49 50
000
ASUS43 KLSX 251207
RWRMO

WEATHER SUMMARY FOR MISSOURI
NATIONAL WEATHER SERVICE SPRINGFIELD MO
700 AM CDT THU AUG 25 2016

NOTE: "FAIR" INDICATES FEW OR NO CLOUDS BELOW 12,000 FEET WITH NO
       SIGNIFICANT WEATHER AND/OR OBSTRUCTIONS TO VISIBILITY.
       CURRENT SKY AND/OR WEATHER CONDITIONS ARE NOT AVAILABLE FOR
       CHILLICOTHE AND FARMINGTON.

MOZ001>031-035>038-043-044-053-054-251300-
...NORTHERN AND WESTERN MISSOURI...

CITY           SKY/WX    TMP DP  RH WIND       PRES   REMARKS
KANSAS CTY INT CLOUDY    72  69  90 N6        30.02S FOG
6HR MIN TEMP:  70; 6HR MAX TEMP:  71; 6HR PCP:  0.49;

KANSAS C DTWN  PTCLDY    71  69  93 E5        30.00F
6HR MIN TEMP:  71; 6HR MAX TEMP:  73; 6HR PCP:  0.24;

LEE`S SUMMIT   FOG       68  67  96 E6        30.03F VSB 1/4
6HR MIN TEMP:  68; 6HR MAX TEMP:  70; 6HR PCP:  0.27;

ST JOSEPH      CLOUDY    70  68  93 NW5       30.03S
6HR MIN TEMP:  69; 6HR MAX TEMP:  71;

CHILLICOTHE      N/A     70  69  97 N3        30.02F
6HR MIN TEMP:  69; 6HR MAX TEMP:  71; 6HR PCP:  0.05;

KIRKSVILLE     CLOUDY    70  68  93 N5        30.03F
6HR MIN TEMP:  69; 6HR MAX TEMP:  71; 6HR PCP:  0.03;


$$
MOZ066>068-077>081-088>096-101>105-251300-
...SOUTHWEST MISSOURI...

CITY           SKY/WX    TMP DP  RH WIND       PRES   REMARKS
SPRINGFIELD    CLEAR     71  67  87 S8        30.09R
6HR MIN TEMP:  70; 6HR MAX TEMP:  75;

JOPLIN         CLEAR     70  66  87 S6        30.07R
6HR MIN TEMP:  70; 6HR MAX TEMP:  79;

BRANSON        PTCLDY    70  68  94 S6        30.13R

$$
MOZ032>034-039>042-045>050-055>058-069>072-251300-
...CENTRAL MISSOURI...

CITY           SKY/WX    TMP DP  RH WIND       PRES   REMARKS
COLUMBIA       PTCLDY    68  67  96 SE7       30.04F
6HR MIN TEMP:  67; 6HR MAX TEMP:  71;

JEFFERSON CITY CLEAR     69  68  96 E5        30.03F
6HR MIN TEMP:  69; 6HR MAX TEMP:  77;

ROLLA          CLEAR     71  69  93 S8        30.07S
6HR MIN TEMP:  69; 6HR MAX TEMP:  76;

SEDALIA        CLEAR     69  67  93 S5        30.05R
6HR MIN TEMP:  68; 6HR MAX TEMP:  72; 6HR PCP:  0.01;

WHITEMAN AFB   PTCLDY    68  68 100 CALM      30.04R
OSAGE BEACH    CLEAR     71  69  93 SE3       30.06R

$$
MOZ051-052-059>065-251300-
...EAST CENTRAL MISSOURI...

CITY           SKY/WX    TMP DP  RH WIND       PRES   REMARKS
ST LOUIS INTL  PTCLDY    76  67  73 S3        30.06S
6HR MIN TEMP:  75; 6HR MAX TEMP:  84;

SPIRIT OF STL  CLEAR     71  70  96 CALM      30.04S
6HR MIN TEMP:  70; 6HR MAX TEMP:  82;

ST CHARLES     CLEAR     70  69  97 SE3       30.04S
6HR MIN TEMP:  70; 6HR MAX TEMP:  80;


$$
MOZ072>076-082>087-097>100-106>115-251300-
...SOUTH CENTRAL AND SOUTHEAST MISSOURI...

CITY           SKY/WX    TMP DP  RH WIND       PRES   REMARKS
CAPE GIRARDEAU CLEAR     73  72  96 S5        30.10R
6HR MIN TEMP:  71; 6HR MAX TEMP:  76;

FARMINGTON     CLEAR     68  68 100 CALM      30.11S
6HR MIN TEMP:  68; 6HR MAX TEMP:  77;

POPLAR BLUFF   CLOUDY    73  72  96 CALM      30.10R FOG
6HR MIN TEMP:  72; 6HR MAX TEMP:  77;

WEST PLAINS    CLEAR     70  67  90 CALM      30.14R
6HR MIN TEMP:  69; 6HR MAX TEMP:  76;


$$



USA.gov is the U.S. government's official web portal to all federal, state and local government web resources and services.